Regional Weather Roundup
Issued by NWS

Home | Current Version | Previous Version | Graphics & Text | Print | Product List | Glossary On
Versions: 1 2 3 4 5 6 7 8 9 10 11 12 13 14 15 16 17 18 19 20 21 22 23 24 25 26 27 28 29 30 31 32 33 34 35 36 37 38 39 40 41 42 43 44 45 46 47 48 49 50
000
ASUS43 KIND 251309
RWRIN

WEATHER ROUNDUP FOR INDIANA
NATIONAL WEATHER SERVICE INDIANAPOLIS IN
900 AM EDT SUN SEP 25 2016

NOTE: "FAIR" INDICATES FEW OR NO CLOUDS BELOW 12,000 FEET WITH NO
SIGNIFICANT WEATHER AND/OR OBSTRUCTIONS TO VISIBILITY.

* - STATION DOES NOT REPORT WEATHER SUCH AS PRECIPITATION OR FOG.

+ - STATION NOT QUALITY CONTROLLED BY THE NATIONAL WEATHER SERVICE.
    USE DATA WITH CAUTION...ESPECIALLY DEWPOINT AND RELATIVE
    HUMIDITY OBSERVATIONS.

INZ001>003-010>013-019-020-251400-
NORTHWEST INDIANA

CITY           SKY/WX    TMP DP  RH WIND       PRES   REMARKS
GARY /AIRPORT/ MOSUNNY   64  54  68 SE14      30.11S
KNOX *+        SUNNY     59  34  38 SE5       30.14S
LA PORTE +     MOSUNNY   62  56  82 E5        30.15S
MICHIGAN CITY+ SUNNY     61  50  67 MISG      30.13S
MONTICELLO +   PTSUNNY   60  52  72 E5        30.13R
RENSSELAER +   PTSUNNY   63  55  77 E8        30.13S
VALPARAISO     SUNNY     61  52  72 E6        30.14R

$$

LMZ046-743>745-251400-
SOUTHERN LAKE MICHIGAN

STATION/POSITION TIME  TEMP    WIND        PRES    WAVE
                       AIR SEA DIR/SP/G            HT
                 (UTC) (F)     (DEG/KT/KT) (MB)    (FT)
BURNS HARBOR     1200   63     140/ 15/ 24 1020.0R
MICHIGAN CITY    1200   61     120/ 14/ 18   N/A
5NW MICH CITY    1300   63 67  150/ 12/ 16   N/A     1

$$

INZ004-005-014>016-021>024-251400-
NORTH CENTRAL INDIANA

CITY           SKY/WX    TMP DP  RH WIND       PRES   REMARKS
ELKHART        SUNNY    N/A N/A N/A E6        30.16S
GOSHEN         SUNNY     60  48  64 E7        30.16S
LOGANSPORT +   SUNNY     59  54  82 E7        30.15R
PERU/GRISSOM   SUNNY     61  55  80 SE8       30.13S
ROCHESTER +    SUNNY     63  55  77 E6        30.15S
SOUTH BEND     SUNNY     60  52  74 SE12      30.16S
WARSAW +       SUNNY     59  43  55 SE5       30.16R

$$

INZ006>009-017-018-025>027-251400-
NORTHEAST INDIANA

CITY           SKY/WX    TMP DP  RH WIND       PRES   REMARKS
ANGOLA *+        N/A     57  46  67 SE8       30.18F
AUBURN +       SUNNY     55  50  82 E5        30.19S
FORT WAYNE     MOSUNNY   58  51  78 E6        30.17S
HUNTINGTON +   SUNNY     58  53  84 E7        30.15F
KENDALLVILLE + SUNNY     58  47  66 SE6       30.18S

$$

INZ028-029-035-036-043>045-051>053-251400-
WEST CENTRAL INDIANA

CITY           SKY/WX    TMP DP  RH WIND       PRES   REMARKS
CRAWFORDSVL +  SUNNY     63  63 100 SE5       30.13S
GREENCASTLE +  SUNNY     64  64 100 SE5       30.13F
LAFAYETTE      SUNNY     63  60  90 E6        30.12S
TERRE HAUTE    SUNNY     68  65  90 E3        30.11S FOG

$$

INZ030>032-037>040-046>048-054>057-064-065-251400-
CENTRAL INDIANA

CITY           SKY/WX    TMP DP  RH WIND       PRES   REMARKS
COLUMBUS       SUNNY     63  63 100 CALM      30.14R
FISHERS *+     SUNNY     63  61  94 CALM      30.14S
GREENWOOD *+   SUNNY     64  63  94 E6        30.15R
INDIANAPOLIS   SUNNY     65  59  81 E7        30.13R
-EAGLE CREEK   SUNNY     65  59  81 SE6       30.14R
MARION +       SUNNY     60  54  79 SE8       30.15F
MT COMFORT *+  SUNNY     63  59  88 CALM      30.14S
SHELBYVILLE    SUNNY     65  59  81 E5        30.14S
ZIONSVILLE +   SUNNY     62  58  89 SE5       30.15S

$$

INZ033-034-041-042-049-050-058-059-251400-
EAST CENTRAL INDIANA

CITY           SKY/WX    TMP DP  RH WIND       PRES   REMARKS
MUNCIE         SUNNY     62  55  77 SE6       30.15S

$$

INZ060-061-067>069-081>083-085>088-251400-
SOUTHWEST INDIANA

CITY           SKY/WX    TMP DP  RH WIND       PRES   REMARKS
EVANSVILLE     SUNNY     72  67  84 CALM      30.10R HAZE
HUNTINGBURG *+   N/A     66  64  94 CALM      30.11R
WASHINGTON +   MOSUNNY   67  67 100 MISG      30.11R FOG

$$

INZ062-063-066-070>080-084-089>092-251400-
SOUTH CENTRAL AND SOUTHEAST INDIANA

CITY           SKY/WX    TMP DP  RH WIND       PRES   REMARKS
BLOOMINGTON    SUNNY     68  64  87 SE5       30.13R
MADISON *+     SUNNY     68  63  83 E6        30.15F
NORTH VERNON + SUNNY    N/A N/A N/A E5        30.14S
SEYMOUR +      SUNNY     68  66  94 CALM      30.12F

$$





USA.gov is the U.S. government's official web portal to all federal, state and local government web resources and services.